Hourly Data Report for October 14, 2013

All times are specified in Local Standard Time (LST). Add 1 hour to adjust for Daylight Saving Time where and when it is observed.

KITCHENER/WATERLOO
ONTARIO

43°27'39.000" N
80°22'43.000" W
321.60 m
6144239
71368
YKF

Download Data

Hourly Data (October 2013)
Hourly Data Report for October 14, 2013
Temp Definition
°C
Dew Point Temp Definition
°C
Rel Hum Definition
%
Wind Dir Definition
10's deg

Wind Spd Definition
km/h
Visibility Definition
km
Stn Press Definition
kPa
Hmdx Definition


Wind Chill Definition


Weather Definition


TIME
00:00 Legend Double Dagger 7.0 6.4 96 31 9 16.1 98.83     LegendNANA
01:00 Legend Double Dagger 5.8 5.5 98 31 9 11.3 98.84     LegendNANA
02:00 Legend Double Dagger 6.1 5.5 96 30 9 16.1 98.85     LegendNANA
03:00 Legend Double Dagger 6.1 5.4 96 31 11 16.1 98.85     LegendNANA
04:00 Legend Double Dagger 5.6 5.3 98 1 4 16.1 98.89     LegendNANA
05:00 Legend Double Dagger 3.5 3.2 98 27 5 11.3 98.92     LegendNANA
06:00 Legend Double Dagger 3.3 3.1 99 31 4 0.6 98.95     LegendNANA
07:00 Legend Double Dagger 3.4 3.3 99 31 8 0.2 98.97     LegendNANA
08:00 Legend Double Dagger 7.8 6.9 94 31 9 16.1 98.99     LegendNANA
09:00 Legend Double Dagger 10.1 8.0 87 31 15 16.1 98.98     LegendNANA
10:00 Legend Double Dagger 12.4 8.7 78 32 17 16.1 98.95     LegendNANA
11:00 Legend Double Dagger 14.3 8.1 66 36 8 16.1 98.92     LegendNANA
12:00 Legend Double Dagger 14.8 7.9 63 33 15 16.1 98.88     LegendNANA
13:00 Legend Double Dagger 15.4 6.6 55 34 15 16.1 98.82     LegendNANA
14:00 Legend Double Dagger 14.9 6.7 58 36 13 16.1 98.77     LegendNANA
15:00 Legend Double Dagger 15.6 6.7 55 35 13 16.1 98.77     LegendNANA
16:00 Legend Double Dagger 15.9 5.9 51 34 11 16.1 98.71     LegendNANA
17:00 Legend Double Dagger 15.0 7.6 61 33 9 16.1 98.75     LegendNANA
18:00 Legend Double Dagger 10.3 7.2 81 1 4 8.1 98.77     LegendNANA
19:00 Legend Double Dagger 9.8 6.8 82 9 5 16.1 98.76     LegendNANA
20:00 Legend Double Dagger 9.2 6.8 85 7 9 16.1 98.77     LegendNANA
21:00 Legend Double Dagger 9.0 6.5 84 2 8 16.1 98.80     LegendNANA
22:00 Legend Double Dagger 8.3 6.4 88 4 5 16.1 98.81     LegendNANA
23:00 Legend Double Dagger 6.0 5.0 94 LegendMM 4 16.1 98.77     LegendNANA

Notes on Data Quality.

Legend

  • E = Estimated
  • M = Missing
  • NA = Not Available
  • ‡ = Partner data that is not subject to review by the National Climate Archives
Date modified: